This is the latest recevied weather packets stored in our database for station/object SV2BBO-14. If no packets are shown the sender has not sent any weather packets the latest 10 day(s).
| Time | Temp. | Humidity | Pressure | Rain* | Wind** | Luminosity | Snow |
|---|---|---|---|---|---|---|---|
| 1777201472 | 21.11° C | 51% | 1014.6 hPa | - | - | - | - |
| 1777200571 | 21.11° C | 55% | 1014.9 hPa | - | - | - | - |
| 1777199671 | 21.11° C | 55% | 1015 hPa | - | - | - | - |
| 1777198770 | 21.67° C | 55% | 1014.9 hPa | - | - | - | - |
| 1777197869 | 21.11° C | 60% | 1014.9 hPa | - | - | - | - |
| 1777196969 | 21.11° C | 58% | 1015 hPa | - | - | - | - |
| 1777196068 | 21.11° C | 57% | 1015 hPa | - | - | - | - |
| 1777195167 | 21.67° C | 58% | 1015 hPa | - | - | - | - |
| 1777194266 | 22.22° C | 56% | 1015 hPa | - | - | - | - |
| 1777193365 | 21.67° C | 58% | 1015.1 hPa | - | - | - | - |
| 1777192464 | 22.78° C | 59% | 1015.2 hPa | - | - | - | - |
| 1777191582 | 23.33° C | 39% | 1015.2 hPa | - | - | - | - |
| 1777190681 | 22.78° C | 44% | 1015.2 hPa | - | - | - | - |
| 1777189781 | 22.22° C | 41% | 1015.3 hPa | - | - | - | - |
| 1777188880 | 21.67° C | 45% | 1015.3 hPa | - | - | - | - |
| 1777187979 | 20.56° C | 47% | 1015.5 hPa | - | - | - | - |
| 1777187078 | 20° C | 46% | 1015.5 hPa | - | - | - | - |
| 1777186178 | 20° C | 48% | 1015.5 hPa | - | - | - | - |
| 1777185276 | 19.44° C | 48% | 1015.5 hPa | - | - | - | - |
| 1777184375 | 19.44° C | 47% | 1015.5 hPa | - | - | - | - |
| 1777183474 | 18.89° C | 48% | 1015.5 hPa | - | - | - | - |
| 1777182574 | 18.89° C | 51% | 1015.5 hPa | - | - | - | - |
| 1777181673 | 18.33° C | 63% | 1015.6 hPa | - | - | - | - |
| 1777180772 | 17.78° C | 64% | 1015.4 hPa | - | - | - | - |
| 1777179871 | 18.89° C | 62% | 1015.4 hPa | - | - | - | - |
* Rain since midnight (hover to see other rain measurements)
** Current wind speed in m/s (hover to see current wind gust speed)